Showing default

AEROCUBE 5C, 40965

Orbit data source: Space-Track

AEROCUBE 5C, 40965 is a payload satellite owned by AERO (US) in LEO that was launched on Thu, 08 Oct 2015 UTC via an ATLAS V 401 launch vehicle from the Air Force Western Test Range (AFWTR). Payload-class satellites include a variety of spacecraft equipped with specific instruments for various scientific and technological missions. These include communications satellites like Starlink; space stations such as the ISS; scientific satellites like the Hubble; Earth observation satellites from companies like Planet Labs, Umbra, and HawkEye 360; GPS; miniature CubeSats for education and research; and military/defense satellites.

Loading next visibility...
Identifier
40965, 2015-058B
Orbit
LEO
Country
Flag of USUS
Related business
Manufacturer
AERO
Mission
Operational Defense Technology
Bus & Motor
CUBESAT 1.5U, Unknown motor
Mass
2 kg wet, 2 kg dry
Launch date (UTC)
2015-10-08 (10 years ago)
Launch vehicle
ATLAS V 401
Launch site
Air Force Western Test Range (AFWTR)
Object type
Payload
Rocket body
Debris
Shape & HBR
Box, 0.1 m
Radar Cross Section
0.025 m²

Expand to show TLE details & history
Last TLE update: 10 hours ago

TLE from 10 hours ago
0 AEROCUBE 5C
1 40965U 15058B   26037.18140554  .00004518  00000-0  40421-3 0  9991
2 40965  64.7689 309.8883 0132643 114.8753 246.6216 14.90596688346122
Epoch: 2026-02-06T04:21Z
TLE epoch observation values (Epoch: 2026-02-06T04:21:13.438Z)
Latitude
-0.00007°
Longitude
108.25931°
Altitude
635.818 km
Speed
7.52 km/s
True Right ascension
20h 39m 33s
True Declination
0° 00' 00"
Sunlit
Object was in daylight at epoch
Visualization orbit readout
Latitude
Unknown
Longitude
Unknown
Altitude
Unknown
Speed
Unknown
Apparent Right ascension
Unknown
Apparent Declination
Unknown
Sunlit
N/A
Visualization observer readout
Local Sidereal Time
16:23:33
Azimuth
Unknown
Elevation
Unknown
Doppler factor
Unknown
Orbital elements
Apogee altitude
687.131 km
Perigee altitude
502.153 km
Semi-major axis
6,972.779 km
Eccentricity
0.01326
Inclination
64.7689°
RAAN
309.8883°
Arg. of periapsis
114.8753°
True anomaly
245.23566°
Mean anomaly
246.6216°
Eccentric anomaly
245.92771°
Mean motion
3.72764 °/min
Orbital period
96.58 mins
BSTAR
0.00040421
Loading maneuver chart data...
Computing Atmospheric mass density...
Loading historical data...
Loading historical data...
Loading historical data...
Loading historical data...
Loading historical data...
Loading historical data...
Loading historical data...

Documentation

Showing up to 5 results
|